Погода в Беглице

Россия / Ростовская область     47°08′41″N   38°34′20″E
темп.,
°C
ветер,
м/с
пор.,
м/с
влажн.,
%
обл.,
%
осадки,
мм/ч
давл.,
гПа
погр.,
м
11 апреля, вс
вс1100:00+9ссв4863100 0.0 1022204
03:00+8с51164100 0.0 1022359
06:00+7ссв61362100 0.0 1022512
09:00+9ссв71264100 0.0 1022651
12:00+12св81166100 0.0 10211053
15:00+10св61079100 0.0 1022773
18:00+9св61082100 0.0 1021723
21:00+9св5984100 0.0 1021506
12 апреля, пн
пн1200:00+8ссв4887100 0.0 1020268
03:00+8с3690100 0.0 1019129
06:00+9с3593100 0.1 1019127
09:00+11сз228498 0.2 1019236
12:00+12юз448370 0.0 1019432
15:00+11юз5584100 0.0 1020383
18:00+10юз4585100 0.0 1021262
21:00+9зюз2389100 0.0 102268
13 апреля, вт
вт1300:00+9зюз228971 0.0 102149
03:00+9з3587100 0.0 1022166
06:00+9з2386100 0.0 102193
09:00+10зюз337999 0.0 1022269
12:00+11юз447793 0.0 1022501
15:00+13зюз3372100 0.0 1021638
18:00+10юз237999 0.1 1022204
21:00+10зюз3482100 0.6 1021184
14 апреля, ср
ср1400:00+9зюз358499 0.0 1021193
03:00+9зюз238699 0.0 102094
06:00+8з228999 0.0 102057
09:00+10зюз2281100 0.0 1019221
12:00+9ююз1189100 1.5 1019133
15:00+10юз338283 2.8 1019429
18:00+10зюз2383100 0.0 1018201
21:00+9зюз2385100 0.0 1017100
15 апреля, чт
чт1500:00+9зюз3484100 0.0 1016106
03:00+7зюз228551 0.0 101612
06:00+7ююз228589 0.0 101620
09:00+11ююв3578100 0.0 1015358
12:00+13ю4675100 0.0 1015735
15:00+10ююз5890100 0.9 1015507
18:00+10ююв359282 0.8 1014259
21:00+10ююв4896100 1.4 1013330